[[{"header":{"parameterUnit":"m.s-1","parameterCategory":1,"la1":30.2991,"la2":30.254,"lo1":-89.0895,"lo2":-89.0444,"dy":0.0017,"dx":0.0017,"nx":28,"ny":28,"refTime":"2024-07-08T21:00:00:Z","depth":0,"parameterNumber":2,"parameterNumberName":"U-component_of_WINDS"},"data":[0,0,0,0,0,0,0,0,0,0,0,0,0,0,0,0,0,0,0,0,0,0,0,0,0,0,0,0,0,0,0,0,0,0,0,0,0,0,0,0,0,0,0,0,0,0,0,0,0,0,0,0,0,0,0,0,0,0,-3.0745,-3.0745,0,-3.0748,-3.0748,-3.0748,-3.0709,-3.0708,-3.0707,-3.0706,-3.071,-3.0711,-3.0712,0,0,0,0,0,0,0,0,0,0,0,0,0,-3.0709,-3.071,-3.0745,-3.0745,-3.0745,-3.0748,-3.0748,-3.0748,-3.0709,-3.0708,-3.0706,-3.0705,-3.0709,-3.0711,-3.0712,0,0,0,0,0,0,0,0,0,0,0,0,0,-3.0719,-3.071,-3.0745,-3.0726,-3.0724,-3.0748,-3.0748,-3.0748,-3.0709,-3.0708,-3.0706,-3.0705,-3.0709,-3.071,-3.0712,-3.0754,0,0,-3.0717,-3.0718,0,0,0,0,0,0,0,0,-3.0719,-3.0721,-3.0729,-3.0728,-3.0726,-3.0726,-3.0737,-3.075,-3.071,-3.0715,-3.0706,-3.0704,-3.0717,-3.0718,-3.0722,-3.0755,-3.0755,-3.0717,-3.0718,-3.0719,-3.072,0,0,0,0,0,0,0,-3.0718,-3.072,-3.0746,-3.0729,-3.0727,-3.0718,-3.0718,-3.0739,-3.0725,-3.0714,-3.0712,-3.0712,-3.0715,-3.072,-3.0721,-3.0755,-3.0717,-3.0719,-3.072,-3.072,-3.0824,-3.0825,0,0,0,0,0,0,-3.072,-3.072,-3.0746,-3.0746,-3.0718,-3.072,-3.072,-3.0728,-3.0725,-3.0722,-3.0714,-3.0711,-3.0718,-3.072,-3.0721,-3.0771,-3.0719,-3.0721,-3.0722,-3.0822,-3.0824,-3.0826,0,0,0,0,0,0,-3.0719,-3.0722,-3.0746,-3.0733,-3.0735,-3.0722,-3.0732,-3.0729,-3.0733,-3.0724,-3.0721,-3.0721,-3.0717,-3.0719,-3.0747,-3.077,-3.0721,-3.0723,-3.082,-3.0823,-3.0825,-3.087,0,0,0,0,0,0,-3.0718,-3.0722,-3.0738,-3.0733,-3.0736,-3.0771,-3.0733,-3.073,-3.0736,-3.0732,-3.073,-3.0728,-3.0716,-3.0744,-3.0748,-3.0772,-3.0724,-3.0818,-3.0821,-3.0824,-3.0866,-3.0874,-3.088,0,0,0,0,0,-3.0717,-3.075,-3.0739,-3.0742,-3.0754,-3.0772,-3.0774,-3.0758,-3.0738,-3.0754,-3.0748,-3.0728,-3.0768,-3.0747,-3.0752,-3.0776,-3.0816,-3.082,-3.0824,-3.0863,-3.0872,-3.088,0,0,0,0,0,0,-3.0758,-3.0749,-3.0736,-3.0769,-3.0772,-3.0765,-3.0784,-3.0768,-3.0777,-3.0773,-3.0754,-3.0754,-3.0785,-3.0783,-3.0761,-3.0817,-3.0788,-3.0793,-3.0817,-3.0825,-3.0832,-3.0831,-3.0726,0,0,0,0,0,-3.0771,-3.0786,-3.0777,-3.0807,-3.0809,-3.0797,-3.0804,-3.0792,-3.0794,-3.0795,-3.0791,-3.0795,-3.0808,-3.0817,-3.0828,-3.0866,-3.0865,-3.0885,-3.0892,-3.0898,-3.0902,-3.0923,-3.0931,-3.0839,-3.0839,-3.0839,0,0,-3.0798,-3.0795,-3.0805,-3.0815,-3.0816,-3.0832,-3.0798,-3.0816,-3.0828,-3.0798,-3.0823,-3.0821,-3.0824,-3.0857,-3.0871,-3.0857,-3.0928,-3.0903,-3.0908,-3.0909,-3.0928,-3.0936,-3.0944,-3.0842,-3.0841,-3.0841,0,0,-3.0855,-3.0854,-3.0878,-3.088,-3.0881,-3.0873,-3.0879,-3.0876,-3.0873,-3.0898,-3.0876,-3.0891,-3.0914,-3.0916,-3.0921,-3.0981,-3.0963,-3.0985,-3.1021,-3.1041,-3.1048,-3.1055,-3.1076,-3.1084,-3.0989,-3.099,-3.099,0,-3.0888,-3.091,-3.0893,-3.0913,-3.0919,-3.0892,-3.0918,-3.092,-3.0926,-3.093,-3.0914,-3.0942,-3.0942,-3.0976,-3.0991,-3.0995,-3.1002,-3.0984,-3.1049,-3.1055,-3.1061,-3.108,-3.1088,-3.0992,-3.0992,-3.0992,-3.0991,0,-3.0951,-3.0967,-3.0987,-3.0992,-3.1,-3.1023,-3.101,-3.1021,-3.1009,-3.1003,-3.1029,-3.1029,-3.104,-3.1047,-3.1036,-3.1079,-3.107,-3.1052,-3.1022,-3.1072,-3.1091,-3.1098,-3.0996,-3.0995,-3.0994,-3.0994,0,0,-3.1032,-3.1029,-3.1036,-3.1039,-3.1039,-3.1051,-3.1074,-3.1084,-3.1093,-3.1099,-3.1117,-3.1137,-3.112,-3.1125,-3.1114,-3.1132,-3.118,-3.1112,-3.1111,-3.1124,-3.1228,-3.1241,-3.125,-3.1169,-3.117,-3.1171,-3.1228,0,-3.1087,-3.1123,-3.1109,-3.1147,-3.1162,-3.1138,-3.1157,-3.116,-3.1156,-3.1168,-3.1164,-3.1178,-3.1155,-3.1158,-3.1175,-3.117,-3.12,-3.1166,-3.1185,-3.1186,-3.1184,-3.126,-3.1274,-3.1327,-3.1235,-3.1236,-3.1237,0,-3.1155,-3.1163,-3.1202,-3.12,-3.1206,-3.1223,-3.1232,-3.1244,-3.1248,-3.1243,-3.125,-3.1235,-3.1257,-3.1229,-3.126,-3.1237,-3.1244,-3.1244,-3.1245,-3.1246,-3.1214,-3.1262,-3.1344,-3.1352,-3.1248,-3.1247,-3.1246,0,-3.121,-3.123,-3.1256,-3.1259,-3.1258,-3.127,-3.1271,-3.1272,-3.128,-3.1288,-3.1293,-3.1304,-3.131,-3.132,-3.1309,-3.1289,-3.1342,-3.1312,-3.1339,-3.1339,-3.135,-3.1349,-3.1433,-3.1356,-3.1356,-3.1356,-3.1356,0,-3.1272,-3.1297,-3.1281,-3.1297,-3.1324,-3.1309,-3.1337,-3.1334,-3.1336,-3.1352,-3.1333,-3.1348,-3.1333,-3.1347,-3.1339,-3.1366,-3.1369,-3.1367,-3.1364,-3.1368,-3.1368,-3.1372,-3.1367,-3.1358,-3.1357,-3.1357,-3.1357,0,-3.1337,-3.1328,-3.1354,-3.1351,-3.1351,-3.1371,-3.1369,-3.1384,-3.1379,-3.1399,-3.1403,-3.1394,-3.141,-3.1401,-3.1417,-3.1412,-3.1447,-3.1439,-3.1445,-3.1443,-3.147,-3.1467,-3.1559,-3.157,-3.1486,-3.1487,-3.1488,0,-3.1377,-3.1396,-3.1395,-3.1403,-3.1405,-3.1419,-3.1427,-3.1413,-3.1422,-3.1428,-3.1442,-3.1457,-3.1467,-3.1494,-3.149,-3.1502,-3.1495,-3.1526,-3.1496,-3.15,-3.1495,-3.1494,-3.1495,-3.1532,-3.1533,-3.1534,-3.1534,0,-3.1449,-3.1444,-3.1455,-3.1465,-3.1474,-3.1482,-3.1487,-3.1496,-3.1482,-3.1494,-3.1509,-3.1518,-3.1534,-3.1549,-3.156,-3.1561,-3.1546,-3.1544,-3.155,-3.1554,-3.1557,-3.1555,-3.1461,-3.1541,-3.1541,-3.154,-3.154,-3.1539,-3.1503,-3.1518,-3.152,-3.1533,-3.1536,-3.1542,-3.1556,-3.1553,-3.1565,-3.1577,-3.1569,-3.1588,-3.1592,-3.1605,-3.1608,-3.1623,-3.161,-3.162,-3.1623,-3.1625,-3.1629,-3.1555,-3.1625,-3.1625,-3.1625,-3.1624,-3.1624,0,-3.1573,-3.1573,-3.1586,-3.1594,-3.1605,-3.159,-3.1596,-3.1606,-3.1623,-3.1627,-3.1638,-3.1657,-3.1671,-3.1668,-3.1681,-3.1694,-3.1688,-3.1698,-3.1697,-3.1697,-3.1639,-3.1632,-3.1703,-3.1703,-3.1703,-3.1703,-3.1703,-3.1703,-3.1611,-3.1637,-3.1631,-3.1658,-3.1658,-3.1676,-3.1681,-3.1687,-3.169,-3.1712,-3.1723,-3.1721,-3.1723,-3.1736,-3.1749,-3.1748,-3.1754,-3.1767,-3.1763,-3.1709,-3.1701,-3.1694,-3.1687,-3.1768,-3.1768,-3.182,-3.182,-3.1821]},{"header":{"parameterUnit":"m.s-1","parameterCategory":1,"la1":30.2991,"la2":30.254,"lo1":-89.0895,"lo2":-89.0444,"dy":0.0017,"dx":0.0017,"nx":28,"ny":28,"refTime":"2024-07-08T21:00:00:Z","depth":0,"parameterNumber":3,"parameterNumberName":"V-component_of_WINDS"},"data":[0,0,0,0,0,0,0,0,0,0,0,0,0,0,0,0,0,0,0,0,0,0,0,0,0,0,0,0,0,0,0,0,0,0,0,0,0,0,0,0,0,0,0,0,0,0,0,0,0,0,0,0,0,0,0,0,0,0,5.038,5.038,0,5.0407,5.0407,5.0407,5.0396,5.0395,5.0394,5.0394,5.042,5.0421,5.0423,0,0,0,0,0,0,0,0,0,0,0,0,0,5.032,5.0321,5.038,5.038,5.0381,5.0407,5.0407,5.0407,5.0396,5.0395,5.0394,5.0393,5.042,5.0421,5.0423,0,0,0,0,0,0,0,0,0,0,0,0,0,5.0346,5.0322,5.038,5.0378,5.0378,5.0406,5.0407,5.0407,5.0396,5.0395,5.0394,5.0393,5.0419,5.0421,5.0423,5.0454,0,0,5.0429,5.043,0,0,0,0,0,0,0,0,5.0345,5.0349,5.0378,5.0378,5.0378,5.0397,5.0396,5.0423,5.0396,5.0389,5.0394,5.0393,5.0413,5.0416,5.0423,5.0456,5.0457,5.0429,5.043,5.0431,5.0432,0,0,0,0,0,0,0,5.0343,5.0347,5.039,5.0378,5.0379,5.0376,5.0379,5.0401,5.0406,5.039,5.0389,5.0392,5.0413,5.0421,5.0423,5.0457,5.0429,5.0431,5.0432,5.0433,5.0521,5.0522,0,0,0,0,0,0,5.0341,5.0346,5.039,5.0391,5.0359,5.0378,5.0381,5.0392,5.0406,5.0407,5.0393,5.0392,5.0418,5.0421,5.0424,5.0464,5.0431,5.0433,5.0434,5.052,5.0521,5.0522,0,0,0,0,0,0,5.034,5.0345,5.0389,5.0369,5.0374,5.038,5.0392,5.0393,5.0401,5.0409,5.0409,5.04,5.0417,5.0421,5.0448,5.0465,5.0434,5.0436,5.0518,5.052,5.0522,5.0543,0,0,0,0,0,0,5.0338,5.0345,5.0356,5.0369,5.0375,5.0412,5.0393,5.0394,5.0404,5.0403,5.0415,5.0416,5.0417,5.0445,5.045,5.0467,5.0437,5.0517,5.0519,5.0521,5.054,5.0545,5.0549,0,0,0,0,0,5.0336,5.036,5.0357,5.0362,5.039,5.0412,5.0416,5.0416,5.0405,5.0418,5.0423,5.0416,5.0462,5.0448,5.0453,5.0471,5.0516,5.0518,5.0521,5.0539,5.0544,5.0549,0,0,0,0,0,0,5.0349,5.0362,5.0358,5.0387,5.0399,5.041,5.0426,5.0421,5.0436,5.0434,5.0433,5.0437,5.0465,5.047,5.0454,5.0504,5.0487,5.0491,5.0499,5.0504,5.0508,5.0507,5.0439,0,0,0,0,0,5.0355,5.0373,5.0383,5.0408,5.0414,5.0419,5.0429,5.0428,5.044,5.0445,5.0452,5.0464,5.0482,5.0493,5.0509,5.0541,5.0545,5.0556,5.056,5.0564,5.0567,5.0587,5.0593,5.0531,5.0531,5.0531,0,0,5.0368,5.0377,5.0388,5.041,5.0419,5.0439,5.0423,5.0443,5.0457,5.0448,5.0474,5.048,5.0494,5.0524,5.0537,5.0529,5.0585,5.0567,5.057,5.0571,5.0591,5.0596,5.0602,5.0533,5.0532,5.0532,0,0,5.0401,5.0409,5.0432,5.0442,5.0457,5.046,5.0466,5.0479,5.0483,5.0509,5.0503,5.052,5.055,5.056,5.057,5.061,5.0605,5.0615,5.0637,5.0657,5.0661,5.0666,5.0682,5.0688,5.0619,5.0619,5.0619,0,5.0415,5.0444,5.0444,5.0466,5.0476,5.047,5.0494,5.0503,5.0522,5.053,5.0521,5.056,5.0568,5.0602,5.0612,5.0619,5.0627,5.0614,5.0661,5.0665,5.0669,5.0685,5.0691,5.062,5.062,5.062,5.062,0,5.0461,5.0481,5.0498,5.0518,5.053,5.0553,5.0557,5.057,5.0569,5.0574,5.0603,5.0613,5.0632,5.064,5.0638,5.0675,5.0669,5.0661,5.0644,5.0677,5.0692,5.0697,5.0622,5.0622,5.0621,5.0621,0,0,5.0502,5.0524,5.053,5.054,5.0557,5.0573,5.0596,5.0616,5.0628,5.0641,5.0662,5.0688,5.0681,5.0691,5.0691,5.0708,5.0743,5.0697,5.0698,5.0707,5.0786,5.0793,5.08,5.0739,5.074,5.0741,5.0785,0,5.0538,5.0579,5.0581,5.0619,5.0638,5.0634,5.0654,5.0667,5.0673,5.0691,5.0697,5.0716,5.0704,5.0711,5.0728,5.0735,5.0759,5.0732,5.0759,5.076,5.0757,5.0808,5.0815,5.0856,5.0791,5.0792,5.0792,0,5.0585,5.0603,5.0642,5.0659,5.0667,5.0685,5.0705,5.0722,5.0737,5.0741,5.0754,5.0752,5.0777,5.076,5.0795,5.0776,5.0788,5.0793,5.0795,5.0798,5.0779,5.0814,5.0869,5.0876,5.0801,5.0801,5.08,0,5.0614,5.0647,5.0675,5.0684,5.0703,5.0717,5.0725,5.074,5.0753,5.077,5.0779,5.0798,5.0809,5.0825,5.0829,5.0816,5.0865,5.0848,5.087,5.087,5.0881,5.088,5.094,5.0886,5.0886,5.0886,5.0886,0,5.0655,5.068,5.0689,5.0707,5.0735,5.0738,5.0766,5.0774,5.0787,5.0807,5.0804,5.0823,5.0826,5.0846,5.085,5.088,5.0884,5.0888,5.0889,5.0889,5.0889,5.0898,5.0895,5.0887,5.0887,5.0887,5.0886,0,5.0692,5.0698,5.073,5.0747,5.0751,5.0772,5.0786,5.0804,5.081,5.0836,5.0842,5.0851,5.0875,5.0881,5.0908,5.091,5.0947,5.0944,5.0942,5.0942,5.0965,5.0963,5.1033,5.1044,5.0981,5.0982,5.0982,0,5.0718,5.0737,5.0757,5.0771,5.078,5.0802,5.0815,5.082,5.0834,5.0855,5.087,5.0894,5.0913,5.0951,5.096,5.0982,5.0981,5.1004,5.0984,5.0985,5.0984,5.0983,5.0986,5.1008,5.1009,5.1009,5.101,0,5.0765,5.0768,5.0788,5.081,5.0827,5.0844,5.086,5.0872,5.0878,5.0895,5.092,5.0935,5.0964,5.0988,5.101,5.102,5.1017,5.1016,5.1023,5.1024,5.1023,5.1026,5.0954,5.1014,5.1014,5.1014,5.1013,5.1013,5.0798,5.0816,5.0834,5.0857,5.087,5.0887,5.0905,5.0914,5.0935,5.096,5.0961,5.0988,5.1005,5.1036,5.1047,5.1069,5.1062,5.1071,5.1073,5.1076,5.1079,5.1018,5.1072,5.1072,5.1072,5.1072,5.1072,0,5.0847,5.0858,5.0879,5.0904,5.0923,5.0918,5.0937,5.0953,5.0978,5.0994,5.1014,5.1043,5.1067,5.108,5.1104,5.1119,5.1118,5.1125,5.1125,5.1128,5.1083,5.1075,5.1126,5.1126,5.1126,5.1126,5.1126,5.1126,5.0874,5.0905,5.0911,5.095,5.0961,5.0988,5.1,5.1015,5.1029,5.1063,5.1083,5.1091,5.1106,5.1132,5.1154,5.1157,5.1167,5.1175,5.1178,5.1136,5.113,5.1125,5.1119,5.1177,5.1177,5.1221,5.1222,5.1222]}]]